Content
SEND FEEDBACK

Daily
Averages
Monthly
Summary
United States of America

CHICAGO, ILLINOIS


Home > North America > United States > Illinois
Elevation: 674 feet     Latitude: 41 59N     Longitude: 087 54W

WEATHER
 
SELECT A DAY
Number of Records: 194,962;   Date Range: 7/8/95 - 8/12/14
 
SHARE

PRINT THIS DATA

[ ← Previous Day ]
WEATHER ALMANAC - NOVEMBER 22, 2013
[ Next Day → ]
[ °C ]   °F
Weather ElementAverageHighLow
Temperature36.9 °F43 °F (12:52 am)27 °F (11:52 pm)
Dewpoint30.1 °F39.2 °F (12:34 am)19 °F (11:52 pm)
Humidity76.8 %89 % (4:52 am)60 % (12:52 pm)
Barometer30.38 in30.49 in (3:52 pm)30.21 in (12:34 am)
Wind Speed8.1 mph15 mph (7:52 am)
Wind Gust20.7 mph (7:52 am)
Weather ElementAverage
Visibility8 mi
Wind DirectionWNW (307.1 °)

Weather ElementTotal
Precipitation0.03 in
Heating Degree Days30 (Base 65)
Averaged from 35 records on November 22, 2013
WEATHER CONDITIONS BREAKOUT
WIND DIRECTION BREAKOUT
WEATHER BY HOUR - NOVEMBER 22, 2013
[ °C ]   °F
Local TimeTemperatureDewpointHumidityBarometerVisibilityWind DirectionWind SpeedGust SpeedPrecipitationEventsConditions
12:34 AM42.8 °F39.2 °F87 %30.21 in5.0 miNorth (360°)4.6 mphOvercast
12:52 AM43.0 °F37.9 °F82 %30.24 in5.0 miNNW (330°)4.6 mphHaze
1:00 AM42.8 °F37.4 °F81 %30.23 in5.0 miNorth (350°)5.8 mphHaze
1:52 AM43.0 °F37.9 °F82 %30.24 in5.0 miNNW (340°)6.9 mphHaze
2:34 AM42.8 °F37.4 °F81 %30.24 in5.0 miNNW (340°)6.9 mph0.00 inOvercast
2:52 AM42.1 °F37.0 °F82 %30.25 in5.0 miNorth (350°)9.2 mph0.00 inHaze
3:04 AM42.8 °F37.4 °F81 %30.25 in5.0 miNNW (330°)9.2 mphHaze
3:34 AM41.0 °F37.4 °F87 %30.25 in5.0 miNNW (340°)9.2 mph0.00 inOvercast
3:52 AM41.0 °F37.0 °F86 %30.28 in5.0 miNNW (340°)10.4 mph0.00 inRainLight Rain
4:06 AM41.0 °F37.4 °F87 %30.27 in5.0 miNNW (340°)9.2 mph0.00 inRainLight Rain
4:52 AM39.9 °F37.0 °F89 %30.29 in5.0 miNorth (350°)11.5 mph0.01 inRainLight Rain
5:07 AM39.2 °F35.6 °F87 %30.28 in5.0 miNNW (340°)9.2 mph0.00 inRainLight Rain
5:52 AM39.0 °F36.0 °F89 %30.30 in6.0 miNorth (350°)6.9 mph0.00 inOvercast
6:52 AM37.0 °F34.0 °F89 %30.35 in8.0 miNorth (350°)12.7 mph0.01 inRainLight Rain
7:52 AM36.0 °F32.0 °F86 %30.39 in7.0 miNorth (350°)15.0 mph20.7 mph0.00 inOvercast
8:52 AM35.1 °F30.9 °F85 %30.41 in10.0 miNorth (350°)10.4 mph0.01 inOvercast
9:52 AM35.1 °F28.9 °F78 %30.45 in10.0 miNNW (340°)11.5 mph20.7 mphOvercast
10:52 AM35.1 °F28.0 °F76 %30.45 in10.0 miNNW (340°)9.2 mph19.6 mphOvercast
11:17 AM35.6 °F26.6 °F70 %30.43 in10.0 miNorth (350°)15.0 mph19.6 mphOvercast
11:52 AM36.0 °F27.0 °F70 %30.43 in10.0 miNNW (340°)11.5 mph20.7 mphMostly Cloudy
12:07 PM37.4 °F28.4 °F70 %30.41 in10.0 miNNW (340°)10.4 mphScattered Clouds
12:52 PM39.0 °F26.1 °F60 %30.42 in10.0 miNorth (350°)8.1 mphScattered Clouds
1:00 PM37.4 °F26.6 °F65 %30.41 in10.0 miNNE (20°)9.2 mphMostly Cloudy
1:52 PM37.0 °F27.0 °F67 %30.46 in10.0 miNNW (340°)11.5 mphOvercast
2:52 PM37.0 °F26.1 °F65 %30.47 in10.0 miNNW (330°)8.1 mphOvercast
3:38 PM35.6 °F24.8 °F65 %30.47 in10.0 miNW (310°)10.4 mphScattered Clouds
3:52 PM35.1 °F25.0 °F67 %30.49 in10.0 miNNW (330°)8.1 mphClear
4:52 PM34.0 °F24.1 °F67 %30.49 in10.0 miNW (310°)4.6 mphClear
5:52 PM33.1 °F24.1 °F70 %30.48 in10.0 miWNW (300°)3.5 mphClear
6:52 PM32.0 °F24.1 °F73 %30.47 in10.0 miCalmClear
7:52 PM30.9 °F23.0 °F72 %30.48 in10.0 miWest (270°)3.5 mphClear
8:52 PM30.0 °F21.9 °F72 %30.47 in10.0 miSW (220°)3.5 mphClear
9:52 PM28.9 °F21.9 °F75 %30.48 in10.0 miWSW (240°)3.5 mphClear
10:52 PM28.0 °F19.9 °F72 %30.47 in10.0 miWest (260°)4.6 mphClear
11:52 PM27.0 °F19.0 °F72 %30.47 in10.0 miWSW (250°)4.6 mphClear
Hourly data recorded from KPWK, located miles away from Chicago, Illinois







STORIES FROM OUR PARTNERS